Weather History for Lewisburg, WV

Change the Weather History Date:

Friday, October 26, 2012

  Actual Average Record
Temperature  
Mean Temperature 55 °F -  
Max Temperature 69 °F 63 °F 79 °F (1963)
Min Temperature 41 °F 39 °F 18 °F (2013)
Degree Days  
Heating Degree Days 10    
Growing Degree Days 5 (Base 50)    
Moisture  
Dew Point 43 °F    
Average Humidity 66    
Maximum Humidity 93    
Minimum Humidity 35    
Precipitation  
Precipitation 0.00 in - - ()
Sea Level Pressure  
Sea Level Pressure 30.12 in    
Wind  
Wind Speed 1 mph (ENE)    
Max Wind Speed 7 mph    
Max Gust Speed -    
Visibility 10 miles    
Events      
Averages and records for this station are not official NWS values.
T = Trace of Precipitation, MM = Missing Value Source: NWS Daily Summary

Daily Weather History Graph

Daily Weather History Graph

Search for Another Location

Airport:

Trip Planner

Search our weather history database for the weather conditions in past years. The results will help you decide how hot, cold, wet, or windy it might be!

Date:

Astronomy

Oct. 26, 2012 Rise Set
Actual Time 7:41 AM EDT 6:29 PM EDT
Civil Twilight 7:14 AM EDT 6:55 PM EDT
Nautical Twilight 6:43 AM EDT 7:26 PM EDT
Astronomical Twilight 6:13 AM EDT 7:57 PM EDT
Moon 4:42 PM EDT (10/26) 4:38 AM EDT (10/26)
Length of Visible Light 11h 41m
Length of Day
10h 47m
Waxing Gibbous, 91% of the Moon is Illuminated
Oct 26
Waxing Gibbous
Oct 29
Full
Nov 6
Last Quarter
Nov 13
New
Nov 20
First Quarter

Hourly Weather History & Observations

Time (EDT) Temp. Windchill Dew Point Humidity Pressure Visibility Wind Dir Wind Speed Gust Speed Precip Events Conditions
12:15 AM 50.0 °F - 41.0 °F 71% 30.16 in 10.0 mi Calm Calm - N/A   Clear
12:35 AM 48.2 °F - 41.0 °F 76% 30.15 in 10.0 mi Calm Calm - N/A   Scattered Clouds
12:55 AM 46.4 °F - 41.0 °F 81% 30.15 in 10.0 mi Calm Calm - N/A   Scattered Clouds
1:15 AM 46.4 °F - 41.0 °F 81% 30.15 in 10.0 mi Calm Calm - N/A   Clear
1:35 AM 46.4 °F - 41.0 °F 81% 30.15 in 10.0 mi Calm Calm - N/A   Scattered Clouds
1:55 AM 46.4 °F - 41.0 °F 81% 30.15 in 10.0 mi Calm Calm - N/A   Mostly Cloudy
2:15 AM 44.6 °F 43.1 °F 39.2 °F 81% 30.14 in 10.0 mi ENE 3.5 mph - N/A   Mostly Cloudy
2:35 AM 46.4 °F - 39.2 °F 76% 30.14 in 10.0 mi Calm Calm - N/A   Scattered Clouds
2:55 AM 46.4 °F - 41.0 °F 81% 30.15 in 10.0 mi Calm Calm - N/A   Clear
3:15 AM 44.6 °F - 39.2 °F 81% 30.15 in 10.0 mi Calm Calm - N/A   Mostly Cloudy
3:35 AM 44.6 °F - 41.0 °F 87% 30.15 in 10.0 mi Calm Calm - N/A   Overcast
3:55 AM 44.6 °F - 39.2 °F 81% 30.15 in 10.0 mi Calm Calm - N/A   Scattered Clouds
4:15 AM 44.6 °F - 39.2 °F 81% 30.16 in 10.0 mi Calm Calm - N/A   Scattered Clouds
4:35 AM 42.8 °F - 39.2 °F 87% 30.16 in 10.0 mi Calm Calm - N/A   Scattered Clouds
4:55 AM 44.6 °F - 39.2 °F 81% 30.17 in 10.0 mi Calm Calm - N/A   Mostly Cloudy
5:15 AM 44.6 °F - 41.0 °F 87% 30.17 in 10.0 mi Calm Calm - N/A   Scattered Clouds
5:35 AM 44.6 °F - 41.0 °F 87% 30.17 in 10.0 mi Calm Calm - N/A   Mostly Cloudy
5:55 AM 44.6 °F 43.1 °F 39.2 °F 81% 30.17 in 10.0 mi North 3.5 mph - N/A   Scattered Clouds
6:15 AM 42.8 °F - 39.2 °F 87% 30.17 in 10.0 mi Calm Calm - N/A   Clear
6:35 AM 42.8 °F - 39.2 °F 87% 30.17 in 10.0 mi Calm Calm - N/A   Clear
6:55 AM 41.0 °F 39.0 °F 37.4 °F 87% 30.17 in 10.0 mi NE 3.5 mph - N/A   Clear
7:15 AM 41.0 °F - 37.4 °F 87% 30.17 in 10.0 mi Calm Calm - N/A   Clear
7:35 AM 41.0 °F - 37.4 °F 87% 30.18 in 10.0 mi Calm Calm - N/A   Clear
7:55 AM 42.8 °F - 39.2 °F 87% 30.18 in 10.0 mi Calm Calm - N/A   Mostly Cloudy
8:15 AM 42.8 °F 41.1 °F 41.0 °F 93% 30.18 in 10.0 mi North 3.5 mph - N/A   Mostly Cloudy
8:55 AM 44.6 °F 43.1 °F 41.0 °F 87% 30.19 in 10.0 mi NNE 3.5 mph - N/A   Clear
9:55 AM 51.8 °F - 44.6 °F 76% 30.19 in 10.0 mi NNE 4.6 mph - N/A   Clear
10:15 AM 53.6 °F - 46.4 °F 77% 30.18 in 10.0 mi NNE 5.8 mph - N/A   Clear
10:35 AM 57.2 °F - 48.2 °F 72% 30.19 in 10.0 mi NE 3.5 mph - N/A   Clear
10:55 AM 59.0 °F - 48.2 °F 67% 30.19 in 10.0 mi North 4.6 mph - N/A   Clear
11:15 AM 60.8 °F - 48.2 °F 63% 30.18 in 10.0 mi Calm Calm - N/A   Clear
11:35 AM 62.6 °F - 48.2 °F 59% 30.17 in 10.0 mi Calm Calm - N/A   Clear
11:55 AM 62.6 °F - 48.2 °F 59% 30.17 in 10.0 mi Calm Calm - N/A   Clear
12:15 PM 64.4 °F - 48.2 °F 56% 30.15 in 10.0 mi SSW 5.8 mph - N/A   Clear
12:35 PM 66.2 °F - 48.2 °F 52% 30.15 in 10.0 mi West 3.5 mph - N/A   Scattered Clouds
12:55 PM 64.4 °F - 46.4 °F 52% 30.13 in 10.0 mi Calm Calm - N/A   Scattered Clouds
1:15 PM 66.2 °F - 46.4 °F 49% 30.12 in 10.0 mi Calm Calm - N/A   Clear
1:35 PM 66.2 °F - 44.6 °F 46% 30.11 in 10.0 mi ENE 3.5 mph - N/A   Clear
1:55 PM 68.0 °F - 42.8 °F 40% 30.10 in 10.0 mi Calm Calm - N/A   Clear
2:15 PM 68.0 °F - 42.8 °F 40% 30.09 in 10.0 mi Calm Calm - N/A   Clear
2:35 PM 69.8 °F - 42.8 °F 38% 30.08 in 10.0 mi Calm Calm - N/A   Clear
2:55 PM 68.0 °F - 42.8 °F 40% 30.07 in 10.0 mi Calm Calm - N/A   Clear
3:15 PM 69.8 °F - 44.6 °F 40% 30.07 in 10.0 mi Calm Calm - N/A   Scattered Clouds
3:35 PM 69.8 °F - 42.8 °F 38% 30.06 in 10.0 mi Calm Calm - N/A   Clear
3:55 PM 69.8 °F - 41.0 °F 35% 30.05 in 10.0 mi Calm Calm - N/A   Clear
4:15 PM 69.8 °F - 41.0 °F 35% 30.05 in 10.0 mi Calm Calm - N/A   Clear
4:35 PM 68.0 °F - 41.0 °F 37% 30.04 in 10.0 mi Calm Calm - N/A   Clear
4:55 PM 68.0 °F - 42.8 °F 40% 30.04 in 10.0 mi Calm Calm - N/A   Scattered Clouds
5:15 PM 68.0 °F - 42.8 °F 40% 30.04 in 10.0 mi ESE 3.5 mph - N/A   Clear
5:35 PM 68.0 °F - 42.8 °F 40% 30.04 in 10.0 mi ESE 3.5 mph - N/A   Clear
5:55 PM 66.2 °F - 42.8 °F 43% 30.04 in 10.0 mi ESE 5.8 mph - N/A   Clear
6:15 PM 64.4 °F - 44.6 °F 49% 30.04 in 10.0 mi SE 6.9 mph - N/A   Clear
6:35 PM 62.6 °F - 44.6 °F 52% 30.05 in 10.0 mi SE 3.5 mph - N/A   Clear
6:55 PM 62.6 °F - 44.6 °F 52% 30.05 in 10.0 mi Calm Calm - N/A   Clear
7:15 PM 62.6 °F - 44.6 °F 52% 30.06 in 10.0 mi Calm Calm - N/A   Clear
7:35 PM 60.8 °F - 44.6 °F 55% 30.06 in 10.0 mi Calm Calm - N/A   Clear
8:15 PM 59.0 °F - 46.4 °F 63% 30.06 in 10.0 mi SE 4.6 mph - N/A   Clear
8:35 PM 59.0 °F - 46.4 °F 63% 30.07 in 10.0 mi Calm Calm - N/A   Clear
8:55 PM 59.0 °F - 46.4 °F 63% 30.08 in 10.0 mi Calm Calm - N/A   Clear
9:15 PM 59.0 °F - 46.4 °F 63% 30.08 in 10.0 mi Calm Calm - N/A   Clear
9:35 PM 55.4 °F - 46.4 °F 72% 30.08 in 10.0 mi Calm Calm - N/A   Clear
9:55 PM 55.4 °F - 46.4 °F 72% 30.07 in 10.0 mi Calm Calm - N/A   Clear
10:15 PM 53.6 °F - 44.6 °F 72% 30.07 in 10.0 mi Calm Calm - N/A   Clear
10:35 PM 53.6 °F - 46.4 °F 77% 30.07 in 10.0 mi Calm Calm - N/A   Clear
10:55 PM 53.6 °F - 46.4 °F 77% 30.06 in 10.0 mi Calm Calm - N/A   Clear
11:15 PM 50.0 °F - 44.6 °F 82% 30.06 in 10.0 mi Calm Calm - N/A   Clear
11:35 PM 51.8 °F - 44.6 °F 76% 30.06 in 10.0 mi Calm Calm - N/A   Clear
11:55 PM 53.6 °F - 46.4 °F 77% 30.05 in 10.0 mi Calm Calm - N/A   Clear